Home   Weather   Karratha   Past weeks
Flag for Australia

Past Weather in Karratha, Western Australia, Australia — Yesterday and Last 2 Weeks

Now
76 °F

Mild.


Feels Like: 78 °F
Forecast: 80 / 59 °F
Wind: 18 mph from Northeast

Location: Karratha Aero

Current Time: Jul 21, 2019 at 3:29:02 pm

Latest Report: Jul 21, 2019 at 2:00 pm


Visibility: N/A

Pressure: 29.95 "Hg

Humidity: 37%

Dew Point: 48 °F

Location of KarrathaLocation

Past Weather in Karratha — Graph

°F

Karratha Temperature Yesterday

Maximum temperature yesterday: 87 °F (at 3:00 pm)
Minimum temperature yesterday: 62 °F (at 6:00 am)
Average temperature yesterday: 73 °F

High & Low Weather Summary for the Past Weeks

 TemperatureHumidityPressure
High87 °F (Jul 20, 3:00 pm)81% (Jul 18, 8:00 pm)30.23 "Hg (Jul 18, 8:00 pm)
Low52 °F (Jul 18, 5:00 am)12% (Jul 13, 12:00 pm)29.92 "Hg (Jul 20, 3:00 pm)
Average69 °F43%30.08 "Hg
* Reported Jul 6 2:00 pm — Jul 21 2:00 pm, Karratha. Weather by CustomWeather, © 2019

Note: Actual official high and low records may vary slightly from our data, if they occured in-between our weather recording intervals... More about our weather records

Advertising

Karratha Weather History for the Previous 24 Hours

Scroll right to see more
 ConditionsComfort  
Time TempWeatherWind HumidityBarometerVisibility
2:00 pm
Sun, Jul 21
76 °FMild.18 mph37%29.95 "HgN/A
12:00 pm74 °FMild.18 mph35%30.00 "HgN/A
11:00 am74 °FMild.17 mph29%30.02 "HgN/A
9:00 am68 °FMild.13 mph43%30.03 "HgN/A
8:00 am64 °FMild.10 mph48%30.01 "HgN/A
6:00 am59 °FCool.7 mph65%29.97 "HgN/A
5:00 am58 °FCool.6 mph70%29.96 "HgN/A
3:00 am61 °FRefreshingly cool.5 mph56%29.96 "HgN/A
2:00 am61 °FRefreshingly cool.6 mph53%29.96 "HgN/A
12:00 am65 °FMild.6 mph46%29.97 "HgN/A
11:00 pm
Sat, Jul 20
69 °FMild.9 mph40%29.97 "HgN/A
9:00 pm71 °FMild.9 mph38%29.96 "HgN/A
8:00 pm69 °FMild.8 mph69%29.96 "HgN/A
6:00 pm75 °FMild.12 mph60%29.93 "HgN/A
5:00 pm78 °FWarm.16 mph54%29.93 "HgN/A
3:00 pm87 °FPleasantly warm.9 mph25%29.92 "HgN/A
Weather by CustomWeather, © 2019

See weather overview